Temperature
23 23 22 21 21 21 24 25 26 26 26 26 26 26 24 23 23 23 23 23 23 22 22 21 21 21 21 21 21 21 21 21 21 21 21 21 20 20 20 20 20 20 20 20 20 20 20 20 20
24 23 22 21 22 23 25 25 26 26 26 27 26 26 24 23 23 23 23 23 23 22 22 22 21 21 21 21 21 21 21 21 21 21 21 20 20 20 20 20 20 20 20 20 20 20 20 20 20
24 24 23 21 22 23 26 26 26 27 27 27 26 25 24 24 24 24 24 23 23 22 22 22 22 21 21 21 21 21 21 21 21 21 21 20 20 20 20 20 20 20 20 20 20 20 20 20 20
25 24 23 22 25 24 25 26 26 27 27 27 26 25 24 25 25 25 24 24 23 23 22 22 22 22 21 21 21 21 21 21 21 21 21 20 20 20 20 20 20 20 20 19 19 19 19 19 19
26 25 22 22 24 24 25 26 27 27 27 27 26 24 24 24 25 25 24 24 23 23 23 22 22 22 21 21 21 21 21 21 21 21 21 20 20 20 20 20 20 20 20 20 20 19 19 19 19
26 22 22 23 24 26 26 27 27 27 26 26 26 24 24 25 25 25 24 24 23 23 23 22 22 22 21 21 21 21 21 21 21 21 20 20 20 20 20 19 19 19 19 20 20 19 19 19 19
25 21 23 24 24 26 28 28 27 27 26 26 26 23 24 25 25 24 24 24 23 23 22 22 22 22 21 21 21 21 21 21 21 21 20 20 20 20 20 19 19 19 19 19 19 19 19 19 19
25 21 24 23 25 26 28 28 28 28 27 27 27 24 24 25 24 24 24 23 23 22 22 22 22 22 21 21 21 21 21 21 21 20 20 20 20 20 20 20 19 19 19 19 19 19 19 19 19
25 21 22 24 25 26 27 27 29 28 27 27 26 27 27 25 24 24 23 23 23 22 22 22 22 22 22 21 21 21 21 21 21 20 20 20 20 20 20 20 19 19 19 19 19 19 19 18 18
24 21 24 25 26 26 27 27 28 27 26 26 26 27 27 25 24 24 23 23 23 23 22 22 22 22 22 21 21 21 21 21 21 21 21 20 20 20 20 20 19 19 19 19 19 19 18 18 18
24 23 24 25 27 27 27 28 28 27 26 27 27 27 26 25 24 24 24 24 23 23 23 23 23 22 22 21 21 21 21 21 21 21 21 20 20 20 20 20 19 19 19 19 19 18 18 18 18
24 24 25 26 27 27 27 28 28 27 28 29 29 29 27 25 25 25 24 24 23 23 23 23 22 22 22 22 21 21 21 21 21 21 20 20 20 20 20 20 19 19 19 19 18 18 18 18 18
24 24 26 27 27 27 27 27 27 28 28 28 28 27 27 26 26 25 24 24 23 23 23 22 22 22 22 21 21 21 21 21 21 20 20 19 19 19 19 19 19 19 18 18 18 18 18 18 18
24 24 24 25 26 26 27 26 26 27 27 27 27 26 26 26 25 24 24 24 23 23 23 22 22 21 21 21 21 20 20 20 20 19 19 19 19 18 19 19 19 19 19 18 18 18 18 18 18
24 23 23 25 25 25 26 25 25 25 26 26 25 25 24 24 24 24 24 24 24 23 23 22 22 21 21 20 20 20 19 19 19 19 19 19 18 18 18 18 19 19 19 18 18 18 18 18 18
23 23 23 23 23 24 25 25 23 24 24 23 23 24 24 23 24 24 24 24 23 23 23 22 22 21 21 20 20 19 19 19 18 18 18 18 18 18 18 18 18 18 18 18 18 18 18 18 18
21 22 23 23 23 23 24 23 22 23 23 22 22 23 23 23 23 23 23 23 23 23 22 22 22 21 21 20 20 19 19 19 18 18 18 18 17 17 17 17 17 17 17 18 18 18 18 18 18
23 23 23 23 23 23 22 22 22 22 22 21 21 22 22 22 22 22 22 23 23 22 22 22 22 21 21 20 20 20 19 19 19 18 18 17 17 17 17 17 17 17 17 17 17 17 18 18 18
23 23 23 23 24 23 22 22 22 22 22 21 21 21 21 21 21 22 22 23 23 22 22 22 22 21 21 21 20 20 19 19 19 18 18 17 17 17 17 17 17 17 17 17 17 17 17 17 17
22 23 23 23 23 23 22 22 21 21 21 21 20 20 20 21 21 22 22 23 23 23 23 22 22 21 21 21 20 20 19 19 18 17 17 17 17 17 17 17 17 17 17 17 17 16 16 17 17
23 23 23 23 22 21 22 21 21 20 20 20 20 20 20 21 22 22 22 23 23 23 23 22 22 21 21 20 20 19 19 18 17 17 17 16 16 16 16 16 16 16 16 16 16 16 16 16 16
23 24 23 23 21 20 21 19 20 19 19 19 19 19 21 21 22 22 23 23 23 23 22 22 21 21 20 20 19 19 18 17 17 16 16 16 16 16 16 16 16 16 16 16 16 16 15 15 15
24 22 22 21 20 19 19 19 18 18 19 19 19 20 21 21 22 22 23 23 23 23 22 22 21 21 20 20 19 18 18 17 16 16 16 16 16 16 15 15 15 15 15 15 15 15 15 15 15
23 20 19 16 16 18 19 19 18 18 19 19 19 21 21 22 22 22 23 22 22 22 22 21 21 21 20 20 19 18 17 17 16 16 15 15 15 15 15 15 15 14 14 14 14 14 14 14 14
21 19 17 18 16 18 18 18 17 19 19 19 19 21 22 22 22 22 22 22 22 22 22 21 21 21 20 20 19 18 17 16 16 15 15 15 15 15 15 14 14 14 14 14 14 14 14 14 14
21 19 18 18 17 17 17 18 18 19 19 19 19 19 19 20 20 20 21 21 21 21 21 21 21 21 20 20 19 18 17 16 15 15 15 14 14 14 14 14 14 14 14 14 14 14 14 14 14
20 19 18 16 17 17 17 18 18 17 17 17 17 16 16 17 18 19 19 20 21 21 21 21 21 20 20 19 18 18 17 16 15 15 14 14 14 14 14 13 13 13 13 13 13 13 14 14 14
20 17 15 16 17 17 17 17 15 14 14 14 13 13 13 14 16 17 18 18 19 19 19 19 19 19 19 18 18 17 16 16 15 15 14 14 14 13 13 13 13 13 13 13 13 13 13 13 13
20 19 15 14 15 16 16 15 15 13 12 12 12 12 12 12 13 15 15 16 17 18 18 18 18 18 18 17 17 16 16 15 15 14 14 14 13 13 13 13 13 12 12 12 13 13 13 13 13
20 19 16 17 16 14 14 14 13 12 12 12 11 11 12 12 13 13 14 15 16 16 16 16 16 16 16 16 16 16 16 15 15 14 14 13 13 13 12 12 12 12 12 12 12 12 12 12 12
Wind_Speed
3 4 3 2 4 5 4 4 3 2 3 3 3 6 7 4 3 2 2 10 14 14 16 20 21 20 19 18 18 17 17 16 16 15 14 14 13 12 11 10 9 9 8 8 8 7 7 7 7
2 4 2 2 5 4 4 4 4 2 3 3 5 5 6 3 2 6 6 8 14 14 15 18 21 20 20 19 18 18 17 16 15 14 13 13 12 11 10 10 9 8 8 7 7 7 7 7 7
4 3 3 4 4 3 2 3 2 1 1 2 4 5 5 3 5 7 7 12 12 11 14 18 22 20 20 19 19 18 17 17 15 14 13 12 11 10 9 9 8 8 7 7 7 7 7 7 7
4 3 4 5 2 3 4 4 2 1 1 4 5 6 4 1 7 7 12 15 14 12 14 17 22 20 20 19 18 18 17 16 15 13 12 11 10 10 9 8 8 8 8 8 8 8 8 8 8
4 4 6 4 4 5 5 4 3 1 0 2 4 5 2 4 7 12 16 16 15 12 12 16 21 20 19 19 18 17 16 15 13 12 11 10 10 9 9 9 9 9 9 9 9 9 9 9 9
5 5 5 3 7 6 5 2 3 2 1 2 4 5 1 2 8 13 15 14 12 12 11 14 21 20 18 18 17 16 15 14 13 12 11 10 10 9 9 10 10 10 11 11 11 11 11 11 11
4 5 3 2 5 6 6 3 3 4 4 4 5 5 1 3 6 10 10 9 9 8 8 9 15 17 18 17 16 15 14 13 13 12 11 10 10 10 10 11 11 12 12 13 13 13 13 13 13
5 5 3 1 3 5 6 6 1 6 5 4 5 7 6 6 9 9 8 8 7 8 8 6 9 12 13 14 16 15 14 13 13 12 12 11 11 12 12 12 13 14 14 14 15 15 15 15 14
4 5 2 4 4 5 6 5 5 1 6 4 3 5 5 14 15 11 9 7 7 9 8 7 6 7 9 11 14 15 15 14 14 13 13 13 11 11 11 12 14 15 16 16 17 17 17 16 15
4 3 6 5 5 4 6 4 3 3 4 2 2 4 12 18 16 14 13 12 12 13 12 10 9 7 7 10 11 10 11 11 12 11 11 11 10 11 12 12 16 17 17 18 18 19 18 16 13
4 6 5 5 5 4 4 4 2 6 4 8 9 10 16 16 14 13 13 12 12 11 11 12 11 8 8 6 6 7 8 8 10 11 12 11 10 10 11 10 12 14 16 14 15 16 15 14 13
3 6 5 6 3 2 3 3 2 5 7 6 9 16 17 18 17 16 14 11 9 9 11 9 10 10 10 7 4 5 5 6 7 10 11 10 7 7 8 8 10 11 11 11 12 10 13 13 14
3 5 5 7 8 5 4 4 3 5 4 5 12 14 15 16 14 10 8 8 8 9 10 9 9 10 9 7 5 4 5 6 8 9 11 12 8 9 7 7 9 11 11 10 8 8 9 9 11
4 6 8 8 6 4 4 3 2 4 3 9 11 11 11 12 10 8 9 9 10 10 9 7 9 8 7 7 6 4 5 7 8 10 12 13 11 8 8 9 8 9 11 11 8 8 9 9 8
4 6 7 5 5 4 1 3 3 3 5 9 9 8 7 6 7 8 9 9 9 8 8 8 8 7 7 7 7 6 6 8 7 10 13 14 14 12 9 9 10 9 12 11 9 9 8 9 9
3 5 5 8 8 6 2 3 6 2 7 8 7 7 7 4 4 4 6 7 7 7 8 8 9 9 9 8 8 6 7 7 7 9 11 13 14 14 9 10 10 10 10 8 9 9 9 9 9
6 4 4 8 8 4 4 1 5 3 7 7 6 6 7 6 5 5 6 8 8 8 8 8 8 9 9 9 7 6 5 5 6 7 7 9 11 11 8 9 9 9 8 8 10 9 8 9 10
2 2 3 5 7 6 6 3 3 3 4 5 6 6 7 7 5 5 7 8 8 8 8 8 8 7 7 5 3 3 3 4 4 4 5 7 6 8 6 7 8 7 7 8 8 10 9 9 9
1 1 2 4 4 4 4 2 3 2 2 4 6 6 6 6 4 4 6 7 7 6 7 7 7 6 4 2 2 2 3 3 3 4 5 6 6 7 5 6 6 6 7 8 9 9 10 10 7
2 2 1 4 4 3 2 3 4 3 3 5 7 7 6 5 4 4 5 6 7 8 8 7 7 5 4 2 2 1 1 2 3 3 5 7 7 7 6 6 6 6 7 8 9 9 7 7 6
2 4 3 3 4 6 3 6 5 4 5 3 3 5 6 8 9 8 8 8 7 8 8 7 6 5 3 3 2 1 2 2 3 3 4 5 7 8 7 8 7 7 7 8 9 9 10 9 7
2 4 3 1 2 4 3 3 6 5 5 2 3 6 8 8 8 8 9 9 9 9 5 5 5 4 3 4 3 2 2 3 3 3 5 7 7 7 7 8 8 8 7 9 10 10 9 11 9
4 3 3 2 2 2 4 1 8 5 4 3 5 8 9 9 10 10 11 10 8 6 4 4 5 4 4 4 4 4 3 3 3 4 6 6 6 7 7 8 8 9 8 10 11 11 11 10 11
4 6 6 6 5 2 2 1 6 5 6 5 6 8 10 9 9 9 9 7 6 3 3 5 6 5 5 5 5 5 5 4 4 5 5 6 6 6 7 8 8 9 9 10 11 11 12 11 12
7 7 6 7 6 4 4 2 8 7 6 6 8 8 7 6 6 8 8 8 7 6 5 6 7 6 6 5 6 5 5 4 5 5 5 6 6 6 8 9 9 9 10 11 11 11 12 12 12
2 8 6 3 4 6 4 4 6 5 6 5 4 5 7 8 7 8 8 8 7 7 7 7 8 7 6 6 6 5 5 4 4 5 5 6 6 7 9 10 10 11 11 11 10 10 11 10 11
5 3 6 6 3 2 6 7 8 13 16 14 12 12 12 11 11 10 10 9 8 7 5 5 6 6 6 7 6 6 6 5 6 6 5 5 6 7 9 10 11 11 11 11 10 8 9 8 8
3 8 6 5 4 4 6 4 6 14 15 14 14 14 13 13 14 14 13 13 12 10 8 6 4 5 6 6 6 6 6 6 6 5 6 6 6 7 9 10 11 12 11 10 9 7 7 6 5
3 4 5 4 4 5 4 3 3 6 8 9 11 11 11 13 13 13 13 12 12 13 12 11 9 8 7 7 7 8 8 7 6 6 6 6 6 7 8 10 11 11 11 10 7 6 5 3 2
1 4 6 2 3 4 4 3 5 5 6 8 9 10 10 10 10 11 12 13 15 15 13 12 10 10 10 9 9 10 9 8 8 8 7 5 6 6 7 8 9 9 10 9 7 5 2 1 2
Wind_Direction
230 153 134 110 64 48 29 350 329 341 14 33 86 95 110 118 174 208 104 142 139 150 162 165 164 160 157 156 153 149 147 146 145 145 144 145 145 146 147 148 148 148 145 142 141 140 139 140 140
177 140 130 81 75 58 338 319 339 325 155 121 77 82 81 82 74 119 135 149 146 151 160 164 166 164 163 162 160 157 155 154 154 153 152 151 151 153 155 157 159 161 161 160 160 159 158 157 158
184 165 107 75 80 145 266 289 297 351 169 161 97 78 99 146 147 160 164 149 145 152 160 168 169 169 169 168 166 164 163 163 163 162 162 163 164 166 168 170 174 179 181 183 183 183 180 180 182
136 75 59 65 51 233 237 256 241 211 356 59 101 82 72 61 162 163 147 149 151 158 162 172 172 174 174 174 172 171 170 170 170 171 172 176 180 184 187 191 195 199 203 206 208 209 205 203 203
74 77 53 31 315 274 249 249 207 207 358 50 98 101 73 9 117 137 148 156 159 161 164 177 176 178 179 179 178 176 176 177 178 180 184 189 196 202 207 211 214 218 222 225 226 228 227 225 225
46 57 64 354 315 302 291 265 155 145 115 109 112 113 69 108 139 153 156 158 160 162 162 178 180 182 184 185 184 183 182 183 186 191 196 202 209 217 223 226 229 232 234 236 238 239 240 240 241
92 82 115 291 308 316 317 323 161 156 164 181 143 120 264 181 172 150 146 140 143 154 159 176 183 187 190 191 192 191 191 192 195 200 207 214 221 228 235 239 242 244 246 247 248 249 250 250 250
113 99 97 292 286 292 303 331 261 160 178 146 134 152 204 194 144 126 116 117 135 156 168 175 181 186 189 194 198 199 200 202 205 210 217 224 231 236 242 246 248 252 254 255 256 258 258 258 258
84 80 179 222 217 273 309 336 335 127 123 136 164 183 186 134 135 131 126 130 155 176 184 183 182 184 185 191 203 204 207 210 213 219 225 230 234 240 247 252 253 256 259 261 262 262 263 263 263
95 149 222 218 206 251 296 298 302 102 123 151 97 77 125 136 149 158 166 173 182 189 193 195 195 189 185 198 206 207 210 213 215 217 226 233 232 236 246 251 255 258 260 263 264 263 263 263 261
158 200 244 255 238 242 272 297 320 138 193 207 186 155 146 151 163 175 183 187 191 191 194 199 201 198 197 205 204 208 213 216 219 221 223 229 237 243 248 249 254 257 260 261 260 261 257 251 248
214 251 247 274 284 281 252 279 289 201 228 220 169 153 156 167 179 186 188 189 183 187 198 197 200 204 208 208 211 214 220 226 230 233 231 229 236 243 246 247 249 248 251 252 252 253 253 250 248
247 274 276 267 288 263 238 237 240 255 267 118 129 146 163 178 188 191 186 182 181 193 197 193 195 206 210 210 218 222 229 236 242 246 241 234 237 244 244 246 247 246 246 247 248 252 253 252 253
267 275 285 287 281 259 213 239 212 267 145 121 135 153 166 177 179 178 185 190 191 196 195 188 195 200 202 212 219 236 239 241 244 246 245 238 238 242 244 248 247 245 244 244 244 249 253 254 251
293 310 327 336 330 303 203 312 303 282 134 125 135 141 146 160 167 184 190 189 190 190 184 186 195 190 198 211 221 229 238 242 244 248 247 242 239 242 242 244 246 244 241 240 241 243 245 248 246
24 25 351 317 334 328 137 263 328 343 122 121 126 128 128 125 141 154 154 158 166 169 174 186 198 190 201 209 218 227 236 240 245 249 251 249 246 244 241 244 247 245 241 238 238 238 241 244 244
28 24 332 317 339 11 85 19 329 21 116 123 128 129 127 114 102 115 129 138 147 156 160 170 182 188 201 208 215 225 235 241 247 251 253 257 257 254 246 248 253 251 247 244 246 239 231 240 243
323 341 325 322 332 36 60 28 360 26 115 139 141 137 133 129 130 131 131 138 146 154 159 167 178 190 189 191 207 234 255 258 258 261 267 275 275 275 265 259 261 259 256 252 244 243 235 235 239
241 221 260 289 331 42 51 12 332 324 154 177 174 160 146 136 131 138 148 151 150 159 166 174 181 190 169 151 174 220 258 274 287 292 298 306 302 297 283 278 275 267 260 258 252 249 246 243 236
189 151 267 296 351 34 357 331 313 315 253 227 197 169 154 146 154 176 183 179 179 184 189 191 191 186 179 163 161 185 240 275 282 300 311 310 311 307 303 290 285 277 270 267 260 251 251 246 218
147 169 209 266 345 20 12 338 330 318 337 338 165 161 177 182 188 199 205 210 207 208 205 197 191 184 174 153 109 59 12 337 322 315 311 311 313 309 301 296 291 285 275 271 265 254 249 250 232
218 236 222 222 41 322 20 299 301 324 340 356 169 177 198 203 206 213 215 220 222 223 212 198 185 171 161 151 155 174 228 268 269 287 292 303 304 307 307 305 301 293 284 275 271 263 251 247 245
209 64 69 66 129 44 22 107 292 333 322 270 222 210 215 216 215 221 225 227 231 225 204 193 177 175 174 169 174 187 217 238 273 289 294 301 304 305 309 308 305 299 291 282 274 268 257 247 244
101 66 49 48 66 65 312 211 285 269 241 248 242 235 232 232 234 240 247 251 255 236 199 186 185 193 189 184 189 199 219 247 280 296 303 308 307 304 306 310 304 298 292 286 280 272 262 252 246
68 70 19 1 8 268 282 225 252 262 256 241 243 250 258 263 263 268 274 271 266 248 222 202 196 208 204 203 211 214 219 233 256 276 289 302 307 309 310 312 307 303 295 289 282 276 267 255 248
159 135 155 215 239 280 322 240 258 316 329 320 319 346 358 351 344 331 321 306 289 269 241 217 212 219 215 218 226 224 223 228 244 253 265 281 290 297 301 305 305 303 300 295 286 278 269 258 247
146 163 161 141 175 262 286 292 320 359 4 9 18 27 22 15 12 5 359 353 339 322 295 261 248 247 238 233 236 237 233 236 248 257 262 275 284 297 305 309 308 307 304 299 293 279 271 257 243
131 138 99 121 165 251 289 319 332 345 352 9 26 30 25 22 23 20 19 16 11 6 1 358 331 294 284 271 260 256 246 244 250 259 269 280 292 300 312 317 316 314 310 305 297 285 272 255 238
32 76 92 110 156 174 251 272 28 5 4 22 26 24 19 20 19 17 14 13 16 18 16 8 355 335 314 291 275 267 261 255 253 256 265 278 291 304 315 322 323 323 322 318 309 296 282 248 215
230 138 139 126 262 193 208 235 44 33 18 21 19 15 12 13 14 13 12 12 13 11 8 4 357 346 330 312 287 268 260 253 250 253 259 269 286 301 313 324 330 337 339 336 335 335 342 63 89
Height
1500 1498 1499 1500 1503 1510 1511 1504 1498 1495 1493 1492 1493 1494 1496 1499 1503 1507 1502 1503 1507 1510 1513 1516 1520 1523 1526 1528 1531 1533 1534 1536 1538 1539 1541 1542 1543 1544 1545 1546 1546 1547 1547 1548 1548 1549 1549 1550 1550
1499 1499 1500 1501 1508 1522 1515 1501 1498 1495 1493 1493 1494 1495 1497 1498 1499 1500 1501 1505 1509 1512 1514 1517 1521 1524 1527 1529 1531 1533 1535 1537 1539 1540 1542 1543 1544 1545 1546 1547 1547 1548 1548 1549 1549 1549 1550 1551 1551
1500 1499 1501 1502 1512 1519 1510 1499 1496 1494 1494 1494 1495 1497 1498 1499 1500 1502 1504 1506 1510 1513 1516 1519 1522 1525 1527 1530 1532 1534 1536 1538 1539 1541 1542 1544 1545 1546 1546 1547 1548 1548 1549 1549 1550 1550 1550 1551 1551
1500 1501 1501 1507 1511 1507 1503 1497 1495 1495 1494 1494 1495 1498 1499 1501 1502 1504 1506 1508 1511 1514 1517 1520 1523 1525 1528 1531 1533 1535 1537 1538 1540 1541 1543 1544 1545 1546 1546 1547 1548 1548 1549 1549 1550 1550 1550 1551 1551
1500 1500 1507 1515 1511 1503 1497 1494 1495 1495 1495 1495 1495 1498 1500 1502 1503 1506 1507 1509 1512 1515 1518 1521 1523 1526 1529 1531 1534 1536 1537 1539 1541 1542 1543 1544 1545 1545 1546 1546 1547 1548 1548 1549 1549 1550 1550 1550 1551
1500 1501 1517 1521 1512 1500 1494 1493 1494 1495 1496 1496 1497 1498 1500 1502 1504 1506 1508 1510 1513 1515 1518 1521 1524 1527 1529 1532 1534 1536 1538 1539 1541 1542 1543 1544 1544 1545 1545 1546 1546 1547 1547 1548 1548 1548 1549 1549 1549
1503 1508 1517 1516 1513 1504 1495 1492 1493 1494 1496 1497 1497 1498 1499 1501 1504 1507 1509 1511 1514 1516 1519 1521 1524 1527 1529 1532 1534 1536 1538 1539 1540 1542 1543 1543 1544 1544 1545 1545 1545 1546 1546 1546 1547 1547 1547 1548 1548
1503 1508 1514 1516 1513 1506 1495 1493 1492 1492 1495 1496 1498 1498 1499 1501 1503 1506 1509 1512 1514 1517 1519 1522 1524 1527 1529 1531 1533 1535 1537 1538 1540 1541 1542 1542 1543 1543 1544 1544 1544 1545 1545 1545 1545 1545 1546 1546 1546
1503 1513 1519 1513 1509 1503 1495 1494 1492 1492 1493 1495 1497 1498 1499 1500 1502 1505 1508 1511 1514 1516 1519 1521 1524 1526 1528 1530 1532 1534 1535 1537 1538 1539 1540 1541 1542 1542 1542 1543 1543 1543 1543 1543 1543 1543 1543 1543 1543
1504 1516 1510 1503 1501 1499 1496 1494 1493 1493 1494 1495 1496 1496 1498 1499 1501 1504 1507 1509 1512 1515 1518 1520 1523 1526 1528 1529 1531 1532 1533 1535 1536 1537 1538 1539 1540 1540 1540 1541 1541 1541 1541 1541 1541 1541 1541 1540 1540
1503 1506 1501 1498 1497 1497 1495 1493 1492 1493 1495 1492 1492 1494 1496 1499 1501 1504 1506 1509 1512 1515 1518 1520 1522 1525 1527 1528 1529 1531 1532 1533 1534 1535 1536 1537 1537 1537 1537 1538 1538 1538 1538 1538 1538 1539 1538 1538 1538
1502 1499 1498 1496 1495 1495 1494 1492 1492 1491 1491 1490 1490 1492 1494 1497 1500 1502 1505 1509 1512 1515 1517 1520 1522 1524 1526 1527 1528 1529 1530 1531 1532 1533 1534 1534 1534 1534 1534 1534 1534 1534 1535 1535 1535 1535 1535 1535 1534
1501 1499 1496 1494 1492 1492 1492 1491 1490 1489 1489 1488 1490 1493 1495 1497 1500 1503 1507 1510 1512 1514 1517 1520 1522 1523 1525 1526 1527 1527 1528 1529 1530 1530 1531 1531 1530 1530 1530 1530 1530 1530 1530 1530 1530 1530 1530 1530 1530
1500 1498 1495 1492 1490 1490 1490 1489 1490 1487 1488 1488 1490 1493 1495 1498 1500 1503 1506 1508 1511 1514 1516 1519 1521 1522 1523 1524 1525 1526 1526 1526 1527 1527 1527 1527 1526 1526 1526 1526 1525 1525 1525 1525 1525 1524 1524 1525 1525
1499 1499 1495 1492 1490 1488 1489 1491 1489 1487 1487 1488 1491 1494 1497 1499 1502 1503 1505 1508 1510 1513 1515 1518 1519 1521 1522 1523 1523 1524 1524 1524 1523 1523 1523 1522 1521 1521 1520 1519 1519 1518 1519 1518 1518 1518 1518 1518 1518
1499 1503 1506 1496 1491 1489 1493 1499 1491 1488 1488 1489 1492 1495 1497 1500 1502 1504 1506 1508 1510 1512 1514 1516 1518 1519 1520 1521 1521 1521 1521 1520 1519 1518 1518 1517 1516 1515 1514 1512 1511 1511 1511 1511 1511 1510 1510 1510 1510
1509 1514 1512 1504 1494 1491 1494 1499 1493 1490 1490 1491 1493 1495 1497 1500 1502 1504 1506 1508 1510 1511 1513 1515 1516 1517 1518 1518 1519 1518 1518 1517 1516 1515 1513 1512 1510 1509 1507 1505 1504 1504 1503 1502 1502 1502 1502 1502 1502
1514 1514 1512 1508 1498 1496 1498 1499 1494 1492 1492 1493 1494 1496 1497 1499 1501 1503 1505 1507 1509 1511 1512 1514 1515 1515 1516 1516 1516 1516 1516 1515 1513 1511 1509 1507 1505 1503 1501 1499 1498 1497 1495 1495 1495 1494 1494 1494 1494
1508 1511 1512 1505 1498 1500 1501 1500 1497 1494 1494 1495 1495 1496 1497 1499 1502 1504 1505 1507 1509 1510 1511 1512 1513 1513 1514 1514 1514 1514 1513 1512 1510 1507 1505 1502 1499 1497 1495 1493 1491 1490 1488 1487 1487 1487 1486 1486 1487
1507 1511 1510 1504 1499 1500 1502 1502 1498 1496 1495 1494 1494 1496 1498 1500 1503 1504 1506 1507 1508 1509 1509 1510 1510 1511 1512 1512 1512 1511 1510 1508 1505 1502 1500 1497 1494 1491 1488 1486 1484 1482 1481 1480 1480 1479 1478 1478 1480
1506 1508 1507 1506 1503 1503 1504 1508 1503 1498 1496 1495 1495 1497 1499 1500 1502 1503 1504 1505 1506 1507 1507 1508 1508 1509 1510 1510 1509 1508 1506 1504 1501 1498 1495 1492 1488 1485 1482 1480 1477 1475 1474 1472 1472 1471 1471 1470 1471
1509 1501 1502 1504 1511 1518 1513 1526 1509 1503 1499 1497 1496 1497 1498 1499 1500 1501 1502 1503 1504 1505 1505 1506 1507 1507 1507 1507 1506 1504 1502 1499 1496 1493 1490 1487 1483 1480 1477 1474 1471 1469 1467 1465 1463 1463 1462 1462 1462
1501 1499 1503 1508 1512 1521 1519 1526 1518 1505 1502 1498 1496 1496 1497 1498 1499 1500 1500 1501 1502 1503 1503 1504 1504 1504 1504 1503 1502 1500 1498 1495 1492 1489 1485 1482 1479 1476 1472 1468 1465 1462 1460 1457 1455 1454 1454 1453 1454
1498 1504 1511 1518 1524 1532 1523 1526 1524 1510 1501 1497 1495 1495 1495 1496 1497 1498 1499 1499 1500 1500 1501 1501 1501 1501 1501 1500 1499 1497 1494 1491 1488 1485 1481 1478 1474 1471 1467 1463 1460 1456 1453 1450 1448 1446 1445 1445 1445
1503 1518 1537 1538 1544 1538 1524 1526 1523 1501 1497 1496 1494 1494 1494 1495 1496 1497 1497 1497 1497 1498 1498 1498 1498 1498 1498 1496 1495 1493 1490 1487 1483 1480 1477 1473 1469 1466 1462 1458 1454 1451 1447 1444 1441 1439 1438 1437 1437
1504 1516 1537 1546 1548 1539 1526 1525 1512 1500 1497 1496 1496 1496 1496 1496 1496 1496 1495 1495 1494 1494 1495 1495 1494 1494 1494 1493 1491 1489 1486 1483 1480 1477 1473 1469 1465 1462 1458 1453 1449 1446 1442 1438 1435 1432 1431 1430 1430
1507 1514 1516 1532 1536 1542 1533 1520 1507 1501 1500 1500 1500 1499 1498 1498 1496 1494 1493 1492 1491 1490 1491 1491 1491 1491 1491 1490 1488 1486 1483 1480 1476 1473 1470 1466 1462 1458 1454 1450 1445 1441 1437 1433 1429 1426 1425 1424 1423
1502 1511 1523 1533 1542 1545 1534 1528 1531 1520 1515 1510 1506 1504 1502 1499 1496 1494 1492 1490 1489 1488 1487 1487 1487 1487 1487 1486 1484 1482 1479 1476 1473 1470 1467 1463 1460 1456 1451 1446 1442 1437 1432 1428 1424 1421 1419 1418 1417
1507 1512 1523 1532 1534 1542 1544 1538 1527 1527 1522 1518 1514 1510 1506 1502 1498 1496 1493 1491 1489 1487 1485 1484 1484 1483 1482 1481 1479 1477 1475 1473 1470 1467 1464 1460 1457 1453 1448 1444 1439 1434 1429 1425 1421 1417 1415 1414 1414
1504 1508 1519 1528 1530 1536 1540 1540 1527 1526 1523 1520 1517 1513 1509 1505 1501 1498 1495 1492 1489 1487 1485 1483 1481 1479 1477 1475 1473 1471 1469 1467 1465 1463 1460 1457 1453 1450 1446 1442 1437 1432 1427 1423 1419 1415 1413 1412 1411